When you browse on this site, cookies collect data to enhance your experience and personalize the content and advertising you see.
Visit our Privacy Policy to learn more. By continuing to use the site, you agree to this use of cookies and data.
  • In United Kingdom
  • List of Countries
  • For 7 days
  • Water Temperature
  • Weather Map
  • Weather Widgets
  • user-avatar
    Login

    Hourly Weather Stepanakert

    Today, 5 December, Thursday

    Time Temperature Precipitation Wind Pressure Humidity
    00:00 +3°C° 0 mm 0 mps 694 mmHg 91%
    01:00 +4°C° 0.2 mm 1 mps 694 mmHg 92%
    02:00 +4°C° 0.2 mm 1 mps 694 mmHg 93%
    03:00 +4°C° 0 mm 1 mps 695 mmHg 95%
    04:00 +4°C° 0.9 mm 1 mps 695 mmHg 96%
    05:00 +2°C° 0.9 mm 2 mps 695 mmHg 96%
    06:00 +2°C° 0.9 mm 2 mps 695 mmHg 97%
    07:00 +2°C° 0.6 mm 2 mps 696 mmHg 96%
    08:00 +1°C° 0.6 mm 2 mps 696 mmHg 96%
    09:00 +1°C° 0 mm 2 mps 697 mmHg 95%
    10:00 +1°C° 0.2 mm 2 mps 697 mmHg 93%
    11:00 +1°C° 0.2 mm 2 mps 698 mmHg 91%
    12:00 +1°C° 0.2 mm 2 mps 698 mmHg 90%
    13:00 +1°C° 0.1 mm 2 mps 698 mmHg 90%
    14:00 +1°C° 0.1 mm 2 mps 698 mmHg 90%
    15:00 +1°C° 0 mm 2 mps 698 mmHg 90%
    16:00 +2°C° 0 mm 1 mps 698 mmHg 91%
    17:00 +2°C° 0 mm 1 mps 699 mmHg 93%
    18:00 +2°C° 0 mm 1 mps 699 mmHg 94%
    19:00 +2°C° 0 mm 1 mps 699 mmHg 93%
    20:00 +1°C° 0 mm 0 mps 699 mmHg 93%
    21:00 +1°C° 0 mm 0 mps 699 mmHg 92%
    22:00 0°C° 0 mm 0 mps 700 mmHg 92%
    23:00 0°C° 0 mm 0 mps 700 mmHg 91%

    Tomorrow, 6 December, Friday

    Time Temperature Precipitation Wind Pressure Humidity
    00:00 0°C° 0 mm 0 mps 700 mmHg 91%
    01:00 0°C° 0 mm 0 mps 700 mmHg 90%
    02:00 0°C° 0 mm 0 mps 700 mmHg 90%
    03:00 -1°C° 0 mm 0 mps 700 mmHg 89%
    04:00 -1°C° 0 mm 0 mps 700 mmHg 89%
    05:00 -1°C° 0 mm 0 mps 700 mmHg 88%
    06:00 -1°C° 0 mm 0 mps 700 mmHg 87%
    07:00 0°C° 0 mm 0 mps 700 mmHg 84%
    08:00 +1°C° 0 mm 0 mps 700 mmHg 81%
    09:00 +2°C° 0 mm 0 mps 701 mmHg 78%
    10:00 +3°C° 0 mm 1 mps 700 mmHg 79%
    11:00 +4°C° 0 mm 1 mps 700 mmHg 80%
    12:00 +4°C° 0 mm 1 mps 700 mmHg 81%
    13:00 +4°C° 0 mm 1 mps 700 mmHg 82%
    14:00 +4°C° 0 mm 1 mps 699 mmHg 84%
    15:00 +4°C° 0 mm 1 mps 699 mmHg 86%
    16:00 +4°C° 0 mm 1 mps 699 mmHg 87%
    17:00 +2°C° 0 mm 0 mps 699 mmHg 89%
    18:00 +2°C° 0 mm 0 mps 699 mmHg 90%
    19:00 +2°C° 0 mm 0 mps 699 mmHg 90%
    20:00 +2°C° 0 mm 0 mps 699 mmHg 90%
    21:00 +2°C° 0 mm 0 mps 699 mmHg 90%
    22:00 +2°C° 0 mm 0 mps 699 mmHg 90%
    23:00 +2°C° 0 mm 0 mps 699 mmHg 89%

    Day after tomorrow, 7 December, Saturday

    Time Temperature Precipitation Wind Pressure Humidity
    00:00 +2°C° 0 mm 0 mps 698 mmHg 88%
    01:00 +1°C° 0 mm 0 mps 698 mmHg 89%
    02:00 +1°C° 0 mm 0 mps 698 mmHg 89%
    03:00 +1°C° 0 mm 0 mps 698 mmHg 89%
    04:00 +1°C° 0 mm 0 mps 698 mmHg 89%
    05:00 +1°C° 0 mm 0 mps 697 mmHg 88%
    06:00 +1°C° 0 mm 0 mps 697 mmHg 88%
    07:00 +1°C° 0 mm 0 mps 697 mmHg 84%
    08:00 +2°C° 0 mm 0 mps 697 mmHg 81%
    09:00 +3°C° 0 mm 0 mps 698 mmHg 78%
    10:00 +4°C° 0 mm 0 mps 697 mmHg 77%
    11:00 +5°C° 0 mm 1 mps 697 mmHg 76%
    12:00 +6°C° 0 mm 1 mps 696 mmHg 76%
    13:00 +6°C° 0 mm 1 mps 696 mmHg 77%
    14:00 +6°C° 0 mm 1 mps 695 mmHg 78%
    15:00 +6°C° 0 mm 1 mps 695 mmHg 80%
    16:00 +5°C° 0 mm 1 mps 695 mmHg 82%
    17:00 +3°C° 0 mm 0 mps 695 mmHg 84%
    18:00 +3°C° 0 mm 0 mps 695 mmHg 87%
    19:00 +2°C° 0 mm 0 mps 694 mmHg 87%
    20:00 +2°C° 0 mm 0 mps 694 mmHg 88%
    21:00 +2°C° 0 mm 0 mps 694 mmHg 88%
    22:00 +2°C° 0 mm 0 mps 694 mmHg 88%
    23:00 +2°C° 0 mm 0 mps 694 mmHg 88%

    8 December, Sunday

    Time Temperature Precipitation Wind Pressure Humidity
    00:00 +2°C° 0 mm 0 mps 693 mmHg 88%
    01:00 +2°C° 0 mm 0 mps 693 mmHg 87%
    02:00 +2°C° 0 mm 0 mps 692 mmHg 87%
    03:00 +2°C° 0 mm 0 mps 692 mmHg 87%
    04:00 +2°C° 0 mm 0 mps 692 mmHg 86%
    05:00 +2°C° 0 mm 0 mps 691 mmHg 85%
    06:00 +2°C° 0 mm 0 mps 691 mmHg 84%
    07:00 +3°C° 0 mm 0 mps 691 mmHg 81%
    08:00 +3°C° 0 mm 0 mps 691 mmHg 78%
    09:00 +4°C° 0 mm 0 mps 691 mmHg 75%
    10:00 +5°C° 0 mm 0 mps 690 mmHg 73%
    11:00 +7°C° 0 mm 1 mps 690 mmHg 71%
    12:00 +7°C° 0 mm 1 mps 689 mmHg 69%
    13:00 +7°C° 0 mm 1 mps 689 mmHg 71%
    14:00 +7°C° 0 mm 1 mps 688 mmHg 73%
    15:00 +7°C° 0 mm 1 mps 688 mmHg 75%
    16:00 +6°C° 0 mm 1 mps 687 mmHg 77%
    17:00 +5°C° 0 mm 1 mps 687 mmHg 80%
    18:00 +4°C° 0 mm 0 mps 687 mmHg 82%
    19:00 +4°C° 0 mm 0 mps 687 mmHg 82%
    20:00 +4°C° 0 mm 0 mps 687 mmHg 81%
    21:00 +4°C° 0 mm 0 mps 687 mmHg 80%
    22:00 +4°C° 0 mm 0 mps 687 mmHg 80%
    23:00 +4°C° 0 mm 0 mps 687 mmHg 79%

    9 December, Monday

    Time Temperature Precipitation Wind Pressure Humidity
    00:00 +4°C° 0 mm 0 mps 687 mmHg 79%
    01:00 +4°C° 0 mm 0 mps 687 mmHg 78%
    02:00 +5°C° 0 mm 1 mps 687 mmHg 77%
    03:00 +5°C° 0 mm 1 mps 687 mmHg 77%
    04:00 +5°C° 0 mm 1 mps 687 mmHg 76%
    05:00 +5°C° 0 mm 1 mps 688 mmHg 74%
    06:00 +5°C° 0 mm 1 mps 688 mmHg 73%
    07:00 +5°C° 0 mm 1 mps 688 mmHg 70%
    08:00 +6°C° 0 mm 1 mps 689 mmHg 68%
    09:00 +7°C° 0 mm 1 mps 689 mmHg 65%
    10:00 +7°C° 0 mm 1 mps 689 mmHg 64%
    11:00 +8°C° 0 mm 1 mps 689 mmHg 64%
    12:00 +9°C° 0 mm 1 mps 689 mmHg 63%
    13:00 +8°C° 0 mm 1 mps 689 mmHg 65%
    14:00 +8°C° 0 mm 1 mps 689 mmHg 67%
    15:00 +8°C° 0 mm 1 mps 689 mmHg 69%
    16:00 +7°C° 0 mm 1 mps 689 mmHg 73%
    17:00 +5°C° 0 mm 0 mps 689 mmHg 77%
    18:00 +4°C° 0 mm 0 mps 689 mmHg 82%
    19:00 +4°C° 0 mm 0 mps 690 mmHg 80%
    20:00 +4°C° 0 mm 0 mps 690 mmHg 79%
    21:00 +5°C° 0 mm 1 mps 690 mmHg 78%
    22:00 +5°C° 0 mm 1 mps 690 mmHg 77%
    23:00 +4°C° 0 mm 1 mps 690 mmHg 76%

    10 December, Tuesday

    Time Temperature Precipitation Wind Pressure Humidity
    00:00 +3°C° 0 mm 0 mps 690 mmHg 75%
    01:00 +4°C° 0 mm 1 mps 690 mmHg 75%
    02:00 +4°C° 0 mm 1 mps 690 mmHg 74%
    03:00 +4°C° 0 mm 1 mps 690 mmHg 73%
    04:00 +4°C° 0 mm 1 mps 690 mmHg 72%
    05:00 +4°C° 0 mm 1 mps 690 mmHg 71%
    06:00 +3°C° 0 mm 1 mps 691 mmHg 70%
    07:00 +3°C° 0 mm 0 mps 691 mmHg 65%
    08:00 +4°C° 0 mm 0 mps 691 mmHg 61%
    09:00 +5°C° 0 mm 0 mps 692 mmHg 56%
    10:00 +7°C° 0 mm 1 mps 691 mmHg 55%
    11:00 +8°C° 0 mm 1 mps 691 mmHg 55%
    12:00 +8°C° 0 mm 1 mps 691 mmHg 55%
    13:00 +8°C° 0 mm 1 mps 690 mmHg 59%
    14:00 +8°C° 0 mm 1 mps 690 mmHg 62%
    15:00 +8°C° 0 mm 1 mps 690 mmHg 66%
    16:00 +7°C° 0 mm 1 mps 690 mmHg 69%
    17:00 +6°C° 0 mm 1 mps 690 mmHg 72%
    18:00 +5°C° 0 mm 1 mps 690 mmHg 75%
    19:00 +4°C° 0 mm 1 mps 690 mmHg 73%
    20:00 +4°C° 0 mm 1 mps 690 mmHg 70%
    21:00 +4°C° 0 mm 1 mps 691 mmHg 68%
    22:00 +4°C° 0 mm 1 mps 691 mmHg 65%
    23:00 +4°C° 0 mm 1 mps 691 mmHg 63%
    Show more